Flag for U.S.A. Weather past 2 weeks in Birmingham, Alabama, U.S.A.

Now
70 °F

Clear.


Feels Like: 64 °F
Forecast: 69 / 88 °F
Wind: No wind

Location: Birmingham International Airport

Current Time: Sep 1, 2015 at 4:04:07 AM

Latest Report: Sep 1, 2015 at 2:53 AM


Visibility: 10 mi

Pressure: 30.09 "Hg

Humidity: 97%

Dew point: 69 °F

Location of BirminghamLocation

Historic Weather in Birmingham — Graph

°F

Birmingham temperature yesterday

Maximum temperature yesterday: 83 °F (at 2:53 PM)
Minimum temperature yesterday: 70 °F (at 12:53 AM)
Average temperature yesterday: 75 °F

Past Weeks' High & Low Weather Summary

 TemperatureHumidityPressure
High89 °F (Aug 19, 3:53 PM)100% (Aug 17, 9:01 AM)30.18 "Hg (Aug 17, 9:01 AM)
Low58 °F (Aug 26, 6:53 AM)38% (Aug 25, 3:53 PM)29.90 "Hg (Aug 18, 5:53 PM)
Average76 °F81%30.03 "Hg
* Reported Aug 17 2:53 AM — Sep 1 2:53 AM, Birmingham, Weather by CustomWeather, © 2015

Note: Actual official high and low records may vary slightly from our data, if they occured in-between our weather recording intervals... More about our weather records

Advertising

Birmingham weather history for previous 24 hours

 ConditionsComfort  
Time TempWeatherWind HumidityBarometerVisibility
2:53 AM
Tue, Sep 1
70 °FClear.No wind97%30.09 "Hg10 mi
1:53 AM71 °FClear.No wind93%30.09 "Hg10 mi
12:53 AM70 °FClear.No wind97%30.09 "Hg10 mi
11:53 PM
Mon, Aug 31
71 °FClear.No wind93%30.08 "Hg10 mi
10:53 PM72 °FClear.No wind93%30.10 "Hg10 mi
9:53 PM73 °FClear.3 mph90%30.10 "Hg10 mi
8:53 PM74 °FClear.No wind88%30.10 "Hg10 mi
7:53 PM77 °FPassing clouds.No wind79%30.07 "Hg10 mi
6:53 PM80 °FScattered clouds.3 mph69%30.06 "Hg10 mi
5:53 PM81 °FPartly sunny.N/A67%30.06 "Hg10 mi
4:53 PM82 °FPartly sunny.7 mph63%30.07 "Hg10 mi
3:53 PM83 °FPartly sunny.3 mph63%30.07 "Hg10 mi
2:53 PM83 °FOvercast.6 mph59%30.08 "Hg10 mi
1:53 PM80 °FScattered clouds.7 mph67%30.10 "Hg10 mi
12:53 PM80 °FBroken clouds.7 mph71%30.11 "Hg10 mi
12:00 PM77 °FPartly sunny.6 mph79%30.16 "Hg10 mi
10:53 AM76 °FMostly cloudy.5 mph82%30.15 "Hg10 mi
9:53 AM73 °FLow clouds.No wind88%30.14 "Hg8 mi
8:53 AM71 °FFog.No wind93%30.12 "Hg5 mi
7:53 AM70 °FFog.6 mph93%30.11 "Hg4 mi
7:00 AM70 °FMostly cloudy.5 mph93%30.12 "Hg8 mi
6:00 AM70 °FPassing clouds.6 mph90%30.10 "Hg10 mi
4:53 AM70 °FLow clouds.3 mph90%30.06 "Hg10 mi
Weather by CustomWeather, © 2015

See weather overviewHow to use our weather pages